Location: Ełk
(53.8214°N, 22.3622°E)
Time: 13:53:01
(UTC+01:00)

ISS - Pass Details

Date: 01 February 2019
Orbit: 403 x 411 km, 51.6° (Epoch: 23 February)

Event Time Altitude Azimuth Distance (km) Brightness Sun altitude
Rises 17:18:26 0° 259° (W) 2,333 2.3 -10.0°
Reaches altitude 10° 17:20:32 10° 255° (WSW) 1,474 0.7 -10.3°
Maximum altitude 17:23:47 58° 176° (S) 483 -3.4 -10.8°
Enters shadow 17:26:17 16° 99° (E) 1,172 -2.1 -11.1°
